Flight Information

DEPARTURE
OXNARD, CA
Elevation:
44
Runways:
7/25 - 5953x100 - ASPH-F
Active PE Departure:
25
Current PE ATIS:
B
Altimeter:
30.12
Remarks:
ATIS:
118.05 805-985-1758
Ground:
121.9
Tower:
134.95
DESTINATION
,
Elevation:
TPA:
1000 (est.)


6827.9 NM73° True-14° Var58° HDG

Flight Plan:
(click to file on line)

1. Type
2. Aircraft Identification
3. Aircraft Type / Special Equipment
4. True Airspeed
kts
5. Departure Airport
(ICAO code)
6. Arriving Airport
(ICAO code)
7. Cruising Altitude
ft
8. Alternate Airport
(ICAO code)
9. Route of Flight
10. Remarks


00:00:00 Departure ATIS: Destination ATIS:

Clearance Limit:
Route:
Altitude: Expect in minutes
Frequency:
Transponder: (7500 Hijack / 7600 Lost Comms / 7700 Emergency)


KOXR 022351Z 06008KT 2SM BR BKN006 OVC011 13/13 A3008 RMK AO2 RAE40 CIG 004V008 SLP186 P0002 60002 T01330133 10139 20128 58003
Time: 2022-12-02T23:51:00Z
1670651390
Winds: 60 @ 8 kts
Visibility: 2.0 sm
Clouds (AGL): BKN 600
OVC 1100
Temperature: 13.3 C
Dew Point: 13.3 C
Pressure: 30.079725 in Hgbr


Notes:

Data extracted from FAA Digital Chart Supplement. Effective: 0901Z Thursday, 27 JAN 2022 to 0900z Thursday, 24 MAR 2022
Current ATIS data is provided courtisy of PilotEdge.